Theta_e
312 310 310 308 306 305 305 305 305 305 305 306 307 307 307 306 309 309 310 311 312 310 311 314 315 316 316 314 318 315 313 312 309 311 315 316 317 318 318 319 322 320 324 325 323 327 327 323 322 326 323 321 322 322
310 308 306 305 305 303 304 304 304 304 304 305 305 306 306 305 307 309 309 309 311 310 311 313 315 314 315 314 312 311 312 312 310 312 314 314 318 316 316 321 316 322 320 322 323 323 319 320 320 320 320 320 322 321
307 306 304 304 302 304 303 304 304 304 304 304 304 305 305 306 306 308 308 309 310 306 308 308 311 315 314 314 313 313 310 310 310 309 311 313 317 315 319 317 319 319 318 321 321 319 320 320 321 320 321 322 322 322
304 303 303 302 302 303 303 303 303 304 303 304 304 304 305 306 305 307 308 308 309 308 312 310 313 313 313 313 314 313 311 310 309 311 313 314 317 314 317 318 319 319 318 319 318 318 320 324 325 324 323 323 324 323
302 303 302 303 303 303 303 303 303 303 302 303 303 304 304 305 305 307 309 310 310 311 311 310 310 313 314 314 315 314 313 310 311 314 314 316 313 315 313 314 316 315 318 324 326 323 324 325 325 324 325 325 325 324
301 302 302 302 302 303 303 303 303 303 303 304 304 303 304 305 305 308 312 311 310 309 313 312 308 309 312 314 313 312 311 310 311 313 314 314 312 315 317 316 315 314 318 321 323 322 323 323 324 325 325 325 325 324
302 302 302 303 303 302 303 303 303 303 304 303 303 304 305 305 305 307 311 311 310 309 309 311 308 309 313 313 311 311 312 312 313 314 315 315 315 318 317 317 317 316 316 319 320 322 324 329 329 327 326 322 322 326
302 302 302 302 303 303 302 303 303 302 302 303 303 304 305 306 307 308 310 311 311 310 307 310 310 312 314 313 314 311 316 315 315 315 314 316 314 315 320 315 315 316 318 322 327 329 328 326 327 323 322 323 325 325
302 302 302 302 303 302 301 302 303 302 302 303 306 306 308 308 309 312 312 310 311 310 312 312 311 318 312 313 319 319 316 321 314 318 318 316 316 321 318 317 317 319 323 327 330 329 328 327 325 324 324 324 324 324
302 302 302 302 302 302 302 301 302 302 303 309 309 309 312 311 312 310 311 310 310 309 307 311 307 312 311 313 318 322 318 321 322 319 316 318 318 317 317 317 317 319 325 329 331 328 328 328 326 327 325 324 325 326
301 302 302 302 302 303 302 301 301 302 306 307 307 311 308 310 311 312 314 313 312 312 308 308 307 310 308 315 319 317 320 319 325 322 324 330 329 325 322 322 322 323 325 328 330 330 329 327 326 327 328 327 327 326
301 302 302 302 303 303 302 301 303 303 303 304 303 305 307 310 313 315 315 313 315 313 311 313 313 308 309 311 319 319 323 320 326 323 330 336 332 326 323 323 324 327 328 330 330 328 328 328 326 325 324 324 325 324
301 301 302 302 303 302 303 305 306 305 303 306 307 310 313 311 314 316 317 318 317 319 321 320 321 312 312 316 319 321 324 325 324 331 331 333 325 322 322 323 325 327 330 331 329 326 325 324 325 325 324 324 323 322
301 301 302 303 304 306 305 306 307 303 305 309 311 309 311 316 314 317 319 319 319 320 321 320 320 323 321 323 320 325 323 326 331 335 335 327 321 322 323 324 327 329 330 328 326 326 325 325 324 321 320 320 320 319
301 302 302 305 306 307 308 308 307 304 307 309 310 310 309 310 312 316 315 315 317 317 319 319 320 321 324 326 320 321 326 328 331 332 328 320 321 323 323 326 329 330 328 327 326 325 324 324 322 320 319 319 318 317
301 302 306 304 303 304 308 307 304 305 307 307 309 310 308 309 311 312 314 315 314 315 315 318 322 325 326 324 323 324 326 330 328 326 319 319 323 324 323 328 328 327 326 325 325 324 324 323 321 321 322 321 320 320
301 302 305 305 305 303 305 307 306 306 308 309 308 304 306 306 308 309 313 315 315 317 320 320 322 327 323 324 324 322 324 322 320 318 316 322 324 324 325 327 326 326 325 324 323 322 322 322 323 323 319 317 316 315
301 303 304 305 303 302 305 306 307 308 310 309 308 306 306 306 308 309 311 315 315 317 318 318 319 322 324 327 324 322 323 319 317 317 322 323 322 324 327 327 326 325 324 323 323 323 324 324 324 323 317 311 311 310
303 303 302 302 303 303 304 307 306 309 309 307 305 304 305 307 307 309 309 311 315 315 316 318 322 322 321 321 324 324 319 318 317 320 325 324 324 326 327 327 326 325 324 324 325 325 327 327 324 322 321 321 317 311
303 302 301 302 303 303 305 307 306 308 309 306 304 306 307 307 308 307 308 311 315 317 318 320 321 321 319 319 322 322 318 318 321 327 327 326 325 326 326 327 327 327 326 325 326 327 327 326 325 325 324 321 315 312
303 305 305 306 305 303 303 306 307 308 307 307 306 307 309 308 310 311 312 310 314 315 316 316 315 316 316 321 321 320 320 320 322 326 328 327 324 327 326 326 327 327 327 326 326 327 327 325 325 323 322 322 323 319
304 304 305 305 304 304 305 305 306 305 306 308 308 309 309 311 311 309 309 313 315 315 314 314 314 313 315 319 322 323 323 323 327 327 326 325 326 326 326 327 326 327 328 328 328 327 326 323 324 322 321 320 322 322
302 304 305 305 306 305 305 305 308 309 311 311 310 312 314 317 316 310 312 311 312 311 312 313 314 315 314 316 321 323 323 323 324 326 326 327 326 326 327 328 328 328 328 328 328 327 323 322 321 316 318 319 319 319
304 305 306 307 306 306 305 308 308 310 312 312 314 315 317 317 314 316 318 316 317 316 312 312 313 314 319 320 320 320 321 325 325 327 328 327 325 325 328 327 328 328 328 328 327 323 322 322 317 316 318 319 319 320
304 305 304 304 307 309 309 310 313 313 314 313 315 316 316 316 318 319 318 315 316 316 317 313 312 314 317 319 320 322 323 323 327 326 327 326 326 325 325 327 327 326 325 323 323 323 320 317 317 318 318 319 319 318
304 306 305 308 309 309 309 311 311 312 311 313 317 317 316 319 320 320 320 317 317 317 317 318 317 318 318 320 321 322 326 325 326 325 324 326 325 324 323 324 322 324 325 324 322 321 319 318 318 319 320 320 319 316
306 306 306 304 308 309 310 310 309 311 313 315 315 315 315 320 321 320 317 317 318 318 320 319 320 319 320 323 324 325 325 326 324 324 327 326 325 325 324 324 323 324 323 322 321 319 317 318 319 319 320 320 320 318
305 303 306 309 309 310 311 310 311 313 316 314 315 314 314 313 315 316 316 315 317 319 320 322 323 323 324 325 324 322 326 326 326 327 328 327 325 324 324 324 323 321 321 319 318 318 319 320 320 320 321 320 318 320
303 302 303 306 308 310 310 309 310 313 315 317 316 317 317 315 314 316 316 317 318 321 320 321 323 324 325 325 325 326 326 326 326 325 325 327 323 325 324 324 323 323 321 321 318 318 319 320 321 321 319 315 314 314
306 303 305 309 311 311 309 308 309 309 310 311 312 313 313 315 315 315 316 318 320 322 323 323 324 326 325 326 326 325 325 326 326 323 323 325 324 325 324 324 324 323 322 321 318 318 318 318 321 321 320 320 319 319
306 306 307 308 308 307 307 307 307 307 308 309 309 310 312 315 321 321 320 320 320 321 323 324 325 325 325 325 325 325 324 326 325 322 325 326 325 324 324 324 323 322 321 320 320 320 321 322 321 320 319 318 317 316
305 306 305 307 307 306 306 306 307 308 309 310 311 311 312 317 322 321 322 323 323 322 323 324 325 325 326 325 325 325 325 324 324 320 323 325 324 323 324 324 323 321 321 322 322 322 322 322 321 321 320 321 315 315
306 306 307 307 308 309 309 309 311 312 312 313 313 313 314 314 320 322 323 322 323 324 324 324 325 326 326 325 323 323 324 324 324 319 321 323 323 323 323 323 322 319 319 321 321 321 322 322 322 322 321 319 316 316
Wind_Speed
16 18 21 20 18 20 20 18 18 19 19 18 18 19 19 17 17 17 5 11 5 1 6 5 4 5 2 3 2 3 3 3 3 4 2 2 2 2 2 2 2 2 1 2 1 3 6 4 7 3 6 3 6 6
16 17 17 16 16 17 16 17 18 18 17 17 17 17 17 18 14 15 4 9 10 4 6 6 18 27 15 9 4 1 4 3 4 4 1 2 0 1 3 2 4 2 5 3 6 5 6 13 7 9 5 7 7 6
15 14 14 14 15 15 16 17 16 17 18 18 17 16 16 17 13 11 10 12 4 2 6 3 6 8 10 24 28 3 3 3 2 4 4 2 1 3 1 5 2 3 3 4 3 5 11 10 10 12 11 13 10 13
13 13 12 13 12 13 14 16 16 17 17 17 17 15 15 16 15 12 9 8 5 2 3 6 8 8 14 6 25 28 3 3 5 3 2 3 2 3 4 3 4 5 4 4 6 10 8 12 13 18 20 19 18 18
11 11 12 12 13 13 14 15 16 17 18 16 14 16 14 16 15 14 11 0 4 1 3 6 21 7 4 5 20 26 13 2 1 2 2 3 2 2 1 1 4 4 7 4 6 12 12 12 17 22 19 18 20 17
10 10 11 12 13 14 14 16 16 15 17 18 13 12 14 15 13 6 1 7 8 7 2 4 6 5 8 5 17 14 10 3 2 4 2 0 0 3 1 3 6 5 4 6 10 6 15 17 20 19 18 20 17 20
10 10 10 12 15 16 14 15 16 16 17 19 16 12 13 12 9 2 4 1 9 8 1 5 5 4 6 2 3 3 3 2 3 2 2 3 1 1 2 3 7 7 8 9 16 12 11 12 13 18 13 13 19 18
11 11 12 12 15 16 15 15 17 18 19 19 17 16 12 10 7 2 2 4 3 1 2 2 5 5 1 0 3 1 3 2 4 2 2 3 1 2 3 9 9 9 11 13 13 14 12 16 15 10 7 8 11 10
12 13 13 13 14 16 16 16 17 18 21 19 14 8 1 1 0 2 4 2 0 1 2 3 2 3 6 2 2 3 2 2 1 2 2 3 2 4 7 7 8 9 8 13 15 15 13 9 10 8 7 7 7 7
13 14 14 13 14 17 17 16 17 20 17 11 6 2 0 2 4 4 1 1 1 1 1 3 1 4 2 2 2 3 2 2 1 3 3 2 4 6 9 11 9 10 10 12 9 11 10 11 7 6 3 2 4 5
13 13 15 13 13 17 17 15 15 18 5 4 5 2 6 5 2 2 1 2 2 2 3 3 4 3 2 0 2 1 3 1 1 3 3 3 3 4 6 7 6 7 7 10 9 11 9 9 5 5 7 6 2 2
14 14 15 14 15 17 15 15 12 9 4 6 9 8 4 2 2 2 2 2 4 4 3 3 4 5 4 2 2 1 3 2 4 4 2 3 3 4 6 7 7 7 8 9 8 7 7 9 7 7 7 7 10 12
14 15 13 15 17 16 12 9 8 8 8 3 2 2 2 1 2 4 3 2 1 2 0 2 3 3 2 1 2 3 3 4 3 2 3 2 2 5 6 5 6 6 7 7 7 7 8 9 10 11 9 13 17 17
14 13 14 15 10 12 11 10 6 3 2 2 2 3 3 3 4 1 2 2 2 2 3 2 2 2 2 1 2 3 2 1 2 3 2 1 4 5 5 4 3 6 6 6 6 7 8 10 12 17 17 17 19 17
13 13 14 5 8 12 8 3 5 5 2 2 2 4 4 3 1 2 3 2 3 2 3 2 1 1 2 1 1 3 2 3 3 2 2 4 3 4 3 2 4 4 5 5 7 6 10 12 13 15 14 18 21 17
12 12 0 5 9 12 6 5 3 3 2 2 4 3 3 2 3 2 3 3 1 2 2 1 0 3 1 3 3 5 4 4 2 2 3 2 3 2 2 4 3 7 6 8 12 12 13 12 11 11 15 15 14 15
9 3 3 6 10 10 4 2 2 3 3 3 4 3 3 3 5 4 3 3 0 1 2 1 1 4 2 3 3 4 4 3 3 2 2 3 0 1 4 5 8 9 8 12 14 12 11 10 10 11 8 13 13 14
4 6 7 7 15 10 2 3 3 3 4 4 3 2 3 3 3 5 4 3 3 1 1 3 2 4 2 3 2 2 2 2 1 2 2 0 3 5 9 5 11 11 11 11 13 11 9 9 10 8 15 16 16 15
14 13 13 12 8 5 2 2 3 3 4 3 4 3 3 4 5 9 7 6 7 5 2 2 6 4 3 2 2 2 2 1 2 2 2 1 5 11 12 9 15 12 11 10 8 8 8 11 10 12 12 13 12 12
12 11 10 9 7 2 3 2 3 3 3 3 3 3 3 4 3 3 5 3 4 3 3 3 3 2 3 3 3 3 2 1 1 1 0 2 7 14 13 10 11 12 11 7 6 8 9 11 9 10 13 12 13 12
6 3 4 3 4 6 3 2 2 2 3 3 3 3 4 2 3 4 3 3 3 3 3 3 2 4 3 3 8 6 1 1 2 3 1 2 2 11 12 11 15 13 7 6 5 7 3 6 9 8 8 7 6 7
2 3 2 4 3 4 3 5 3 4 2 3 3 3 3 3 3 3 2 2 3 4 4 4 3 3 1 2 5 8 4 4 3 1 1 4 2 5 7 12 13 9 8 8 6 4 2 9 9 4 7 10 8 8
4 2 2 2 2 1 4 3 3 3 3 3 2 3 3 2 3 2 2 3 3 3 7 8 12 17 8 8 4 3 3 6 4 4 7 11 7 10 14 15 16 13 10 12 10 5 9 8 8 16 18 19 18 16
2 2 2 2 3 3 2 3 3 3 3 2 2 3 3 2 3 0 2 2 1 4 2 5 6 2 1 1 2 3 2 7 7 11 10 7 4 6 15 13 13 15 14 18 12 12 10 9 15 16 15 16 14 13
2 2 1 3 2 3 3 3 3 3 2 2 3 3 2 2 1 2 1 2 2 2 4 2 4 4 3 2 1 4 5 6 3 4 10 10 13 14 13 14 16 17 17 19 12 10 9 13 9 10 11 11 12 9
1 3 4 3 2 3 2 3 3 3 4 3 3 3 2 2 2 2 1 2 2 2 3 3 1 2 3 4 4 2 3 2 7 4 4 9 14 15 9 6 4 7 14 18 16 12 10 9 11 12 12 9 9 10
2 3 3 4 2 2 3 3 3 3 3 3 3 5 4 3 2 2 3 2 2 5 16 17 8 7 5 8 15 11 5 10 7 3 4 6 13 20 22 16 11 15 16 15 17 16 12 11 13 10 9 8 7 8
4 3 3 2 3 2 3 2 2 3 3 2 2 2 2 2 3 3 3 8 18 18 16 7 3 13 18 16 16 9 9 9 7 1 6 12 13 13 15 18 16 16 14 17 17 14 11 10 13 14 9 10 5 5
3 3 1 5 4 3 3 3 3 2 1 2 5 2 2 3 3 5 12 17 14 5 5 4 11 15 15 13 10 7 8 4 1 3 4 5 4 11 14 15 15 14 13 12 15 11 11 10 10 10 11 10 8 6
4 3 2 3 2 3 3 4 3 4 4 8 4 5 4 4 22 27 18 8 1 5 2 5 8 15 12 10 7 4 4 3 7 6 6 6 12 19 17 15 15 13 11 8 12 10 9 7 11 10 8 6 6 6
3 1 3 3 5 5 7 6 10 10 8 7 7 7 4 3 5 8 14 15 12 7 4 6 7 14 16 12 9 5 2 1 3 8 17 22 21 23 20 17 17 15 11 10 11 13 16 15 13 10 8 4 4 6
2 2 1 3 4 5 4 2 2 2 3 2 2 1 2 3 3 2 7 6 5 8 7 7 9 7 11 13 13 12 3 5 5 13 20 23 27 25 23 20 22 20 19 16 18 16 13 11 10 8 5 2 8 5
2 2 3 2 3 4 3 1 3 3 2 2 3 2 2 4 4 4 7 4 2 2 8 10 11 11 9 10 12 13 6 2 5 16 20 21 21 22 23 23 25 23 18 16 15 11 7 5 6 7 3 2 6 5
Wind_Direction
309 316 321 321 326 328 331 333 335 335 339 342 343 346 349 353 359 355 289 35 26 236 273 222 235 198 169 107 174 266 37 343 39 69 127 205 172 265 9 283 185 208 345 308 97 239 274 210 348 113 230 247 273 267
306 316 320 324 324 331 339 337 336 337 342 340 340 340 344 348 352 350 316 339 330 205 254 260 264 266 250 190 163 331 183 199 193 94 102 107 30 31 143 287 325 285 184 209 187 229 255 297 253 265 216 246 268 244
311 315 319 320 328 331 333 334 335 337 337 338 339 340 340 339 341 340 314 329 331 341 297 337 242 264 284 240 219 152 273 197 176 171 155 148 203 128 193 244 237 275 175 222 356 272 255 275 285 279 282 280 275 280
311 315 321 325 328 332 330 331 332 330 331 331 332 332 334 333 330 330 301 293 301 285 291 281 329 299 295 236 203 205 165 100 101 84 109 132 177 171 206 239 211 209 171 224 260 281 280 280 300 299 297 290 283 275
312 318 324 327 329 327 324 323 320 321 324 326 326 326 328 329 325 320 299 165 191 268 286 284 307 301 314 262 198 201 211 110 117 77 95 211 175 123 357 7 255 189 200 179 265 292 294 281 290 290 287 281 282 273
314 322 330 332 333 330 327 325 325 328 334 332 328 322 325 325 329 334 129 115 77 20 290 301 304 290 315 257 192 181 174 148 126 142 195 161 219 107 117 253 261 243 262 249 276 260 291 284 282 277 281 283 283 276
311 320 324 330 338 336 331 328 326 325 325 322 322 322 316 315 324 252 284 219 297 321 50 303 313 283 306 102 79 102 95 119 109 144 128 137 181 115 159 224 261 264 262 283 288 295 281 279 287 297 288 281 289 290
309 313 316 324 325 329 329 328 327 325 322 323 318 315 306 297 289 298 348 315 247 252 76 281 277 324 286 209 102 105 93 48 20 139 89 121 68 73 257 245 271 282 292 288 298 311 279 279 294 285 275 293 327 333
310 313 314 314 325 327 327 328 327 327 328 322 315 317 311 147 289 350 318 296 228 163 281 255 265 275 349 3 108 51 84 93 324 124 189 113 149 231 230 255 272 285 289 294 313 318 302 296 290 287 289 314 336 339
312 313 315 315 324 330 327 325 325 326 331 337 347 7 205 336 284 305 327 25 9 1 15 254 286 272 6 354 40 95 37 133 159 249 108 150 254 258 255 247 261 275 278 301 312 327 311 315 311 309 276 318 339 17
312 314 313 310 318 316 320 322 326 328 332 0 1 316 323 323 291 212 214 197 139 247 199 235 209 265 301 206 168 123 156 141 161 245 158 213 256 241 254 279 283 283 290 291 297 292 286 263 290 359 5 18 265 114
312 312 311 312 315 316 316 316 320 313 300 316 299 300 291 272 221 243 220 190 209 233 201 210 228 199 270 189 119 335 111 74 240 154 216 243 247 269 313 304 308 311 297 320 18 26 22 46 46 55 51 44 52 67
311 313 314 315 317 313 307 315 317 293 300 309 236 254 235 205 286 206 211 191 208 199 99 277 284 219 256 185 69 93 129 217 125 210 234 228 260 292 298 303 304 311 352 25 32 60 52 59 58 54 56 52 62 62
309 311 315 321 317 319 304 292 287 240 225 255 244 271 214 203 250 68 350 354 321 275 290 268 269 300 312 167 148 131 223 137 232 227 225 217 254 290 317 295 328 333 18 67 41 57 61 60 59 60 68 76 80 75
311 312 320 328 341 345 331 271 199 192 230 259 248 243 231 261 327 283 267 280 294 339 340 347 287 317 297 235 66 103 130 243 241 239 233 245 273 300 310 318 346 33 61 65 54 62 70 69 70 70 66 85 88 82
312 320 149 8 3 4 13 127 160 197 255 245 237 260 264 338 273 203 281 271 253 321 310 279 214 262 315 233 171 200 176 222 239 210 232 284 302 348 318 45 17 81 84 77 71 73 84 90 92 94 90 88 99 103
312 260 298 328 348 349 318 276 214 225 249 233 237 240 243 275 253 253 231 228 142 296 223 94 276 223 219 215 185 180 197 224 214 248 239 233 211 189 107 68 80 84 89 91 92 97 96 99 94 70 55 75 88 97
280 314 313 291 341 338 287 228 245 252 245 235 251 234 210 226 250 271 246 194 160 257 239 210 348 250 229 147 222 213 277 299 247 249 252 280 125 154 105 100 86 104 99 100 104 106 99 88 74 76 87 85 82 86
296 292 281 290 313 316 302 236 211 271 255 255 257 219 227 248 235 246 255 248 192 145 194 221 222 218 193 200 248 353 334 237 283 281 281 113 148 139 112 104 100 101 102 104 90 86 69 83 100 104 98 87 87 92
300 285 279 265 230 234 271 243 217 259 273 283 275 259 224 225 230 222 236 178 156 172 211 229 243 241 167 179 185 210 232 211 283 359 235 80 142 139 134 135 121 122 123 125 95 72 72 73 89 82 76 86 96 99
306 314 321 153 162 208 287 303 256 238 275 257 268 238 254 249 228 219 229 159 161 207 222 241 267 285 323 147 195 216 10 93 260 217 154 124 150 166 154 155 149 148 145 153 137 133 90 117 137 125 95 102 121 127
275 308 273 185 197 210 241 236 256 287 277 268 292 226 272 276 254 229 173 159 222 196 201 216 231 273 291 174 222 230 203 185 141 116 343 286 59 157 159 168 163 169 168 171 179 166 113 138 134 114 121 121 136 149
295 269 244 239 257 234 264 203 246 224 255 255 274 277 255 252 211 132 204 214 248 233 203 203 221 235 240 266 252 195 174 82 71 359 307 296 284 186 155 165 175 165 167 181 199 185 144 126 103 116 118 118 116 114
241 268 242 229 208 261 295 244 225 249 257 264 265 260 276 280 332 272 247 217 233 319 331 214 179 196 47 157 176 206 80 67 37 309 296 260 189 139 157 163 169 160 162 165 169 157 148 122 130 128 134 133 127 116
287 261 170 264 247 249 250 256 240 241 266 261 254 253 270 312 282 284 245 280 303 305 326 323 192 175 170 207 155 132 95 78 299 272 287 196 141 122 127 148 160 152 152 149 155 151 134 143 148 142 144 146 137 125
251 211 198 258 203 235 289 288 308 321 290 269 285 334 312 313 276 255 261 292 281 281 325 346 300 187 208 173 134 126 77 260 231 269 293 164 148 138 136 131 115 161 180 165 156 155 166 169 149 149 158 154 137 112
276 271 238 219 248 209 260 247 256 256 263 289 344 341 347 327 340 309 302 286 291 301 310 307 268 186 169 148 132 127 154 191 206 242 39 134 166 154 146 144 152 162 175 169 162 154 163 168 173 173 141 143 139 129
243 246 242 309 249 241 265 277 266 265 221 221 237 306 324 227 255 254 246 283 311 313 317 343 114 170 164 150 135 148 174 189 205 259 95 131 150 165 155 152 146 143 138 148 148 157 174 157 155 160 148 149 150 175
258 251 13 278 246 226 230 230 256 262 267 318 318 288 241 222 251 262 277 297 308 306 329 48 84 120 125 133 146 157 157 159 66 50 132 131 126 166 173 160 155 155 156 155 177 173 153 149 171 168 154 158 166 176
259 176 229 269 235 253 238 196 237 241 252 264 241 271 265 234 268 293 292 292 258 328 318 114 128 136 133 129 119 142 171 329 330 217 169 167 174 173 180 170 163 164 161 158 180 192 183 248 171 164 159 169 193 215
256 289 269 256 255 248 253 252 256 269 270 265 242 233 235 265 307 281 293 302 307 234 183 102 98 158 137 144 175 169 249 288 103 129 173 166 165 173 175 167 163 163 168 170 164 164 155 155 160 155 155 170 206 192
291 244 241 300 293 284 298 233 238 256 282 295 286 200 153 159 170 278 298 311 165 159 163 128 114 120 176 193 188 188 86 43 62 141 145 157 169 175 178 176 167 161 152 151 156 160 165 156 145 142 146 170 167 170
244 254 252 281 293 284 283 291 278 280 268 280 270 236 209 170 125 199 238 256 346 150 140 125 133 147 159 166 174 193 214 5 98 149 154 161 168 175 176 170 169 173 169 169 168 161 160 156 158 165 157 160 192 208